Location: Alexandria
(38.8050°N, 77.0470°W)
Time: 10:46:27
(UTC-05:00)

OTV 5 (USA 277) - Pass Details

Date: 17 February 2018
Orbit: 404 x 417 km, 43.0° (Epoch: 07 September)

Event Time Altitude Azimuth Distance (km) Brightness Sun altitude
Rises 06:16:03 0° 205° (SSW) 2,302 ? -8.6°
Reaches altitude 10° 06:18:42 10° 182° (S) 1,448 ? -8.1°
Maximum altitude 06:20:45 16° 143° (SE) 1,156 ? -7.7°
Drops below altitude 10° 06:22:50 10° 103° (ESE) 1,457 ? -7.3°
Sets 06:25:30 0° 81° (E) 2,323 ? -6.8°
